Regional Weather Roundup
Issued by NWS Little Rock, AR

Home | Current Version | Previous Version | Text Only | Print | Product List | Glossary On
Versions: 1 2 3 4 5 6 7 8 9 10 11 12 13 14 15 16 17 18 19 20 21 22 23 24 25 26 27 28 29 30 31 32 33 34 35 36 37 38 39 40 41 42 43 44 45 46 47 48 49 50
000
ASUS44 KLZK 261605
RWRLZK

WEATHER ROUNDUP FOR ARKANSAS
NATIONAL WEATHER SERVICE LITTLE ROCK AR
1100 AM CDT SUN APR 26 2015

NOTE: "FAIR" INDICATES FEW OR NO CLOUDS BELOW 12,000 FEET WITH NO
SIGNIFICANT WEATHER AND/OR OBSTRUCTIONS TO VISIBILITY.

ARZ001-003-010-029-261700-
NORTHWEST ARKANSAS

CITY           SKY/WX    TMP DP  RH WIND       PRES   REMARKS
FAYETTEVILLE   PTSUNNY   62  54  74 E9        29.85R
FORT SMITH     SUNNY     69  56  62 E12       29.80R
HARRISON       CLOUDY    57  50  77 NE8       29.88R
BENTONVILLE    CLOUDY    59  48  67 E9        29.87R
ROGERS         CLOUDY    59  51  75 E10       29.87R
SILOAM SPGS    CLOUDY    59  48  67 E7        29.86S
HIGHFILL       CLOUDY    58  51  78 NE10      29.85R
SPRINGDALE     CLOUDY    57  52  82 NE9       29.87R
$$

ARZ004-005-016-261700-
NORTH CENTRAL ARKANSAS

CITY           SKY/WX    TMP DP  RH WIND       PRES   REMARKS
BATESVILLE     CLOUDY    61  54  77 N5        29.86R
FLIPPIN        CLOUDY    57  48  72 NE7       29.87R
MTN HOME       CLOUDY    56  49  77 VRB6      29.88R
$$

ARZ040-041-261700-
WEST CENTRAL ARKANSAS

CITY           SKY/WX    TMP DP  RH WIND       PRES   REMARKS
MENA           SUNNY     73  59  60 NE7       29.80R
MOUNT IDA      SUNNY     71  57  61 VRB6      29.78S
$$

ARZ009-017-025-026-028-261700-
NORTHEAST ARKANSAS

CITY           SKY/WX    TMP DP  RH WIND       PRES   REMARKS
CORNING          N/A     54  46  76 N13       29.90S
JONESBORO      CLOUDY    55  51  86 NE13      29.87R
NEWPORT        CLOUDY    60  52  75 NE20      29.87R
WALNUT RIDGE   CLOUDY    54  46  76 N15       29.88S
BLYTHEVILLE    CLOUDY    55  51  86 N16       29.87R
$$

ARZ022-023-033-042-044-261700-
CENTRAL ARKANSAS

CITY           SKY/WX    TMP DP  RH WIND       PRES   REMARKS
LITTLE ROCK    PTSUNNY   69  55  60 NE10      29.83R
N LITTLE ROCK  PTSUNNY   68  60  73 NE9       29.83R
JACKSONVILLE   CLOUDY    66  56  71 NE6       29.83R
SEARCY         CLOUDY    63  57  81 N10       29.86R
HOT SPRINGS    SUNNY     70  57  63 E9        29.80F
RUSSELLVILLE   MOSUNNY   67  54  63 VRB5      29.82R
CLINTON        CLOUDY    64  54  68 N3        29.86R
$$

ARZ036-261700-
EAST ARKANSAS

CITY           SKY/WX    TMP DP  RH WIND       PRES   REMARKS
WEST MEMPHIS   CLOUDY    58  55  90 N14       29.83R
$$

ARZ050-053-066-070-073-261700-
SOUTHWEST ARKANSAS

CITY           SKY/WX    TMP DP  RH WIND       PRES   REMARKS
ARKADELPHIA    FAIR      73  61  66 NE5       29.80S
CAMDEN         SUNNY     75  57  53 NE3       29.78S
TEXARKANA      SUNNY     74  59  59 VRB5      29.76S
EL DORADO      SUNNY     77  59  53 NE7       29.77S
DE QUEEN       SUNNY     74  60  61 E8        29.75S
$$

ARZ056-057-069-261700-
SOUTHEAST ARKANSAS

CITY           SKY/WX    TMP DP  RH WIND       PRES   REMARKS
PINE BLUFF     MOSUNNY   71  60  68 NE10      29.82R
STUTTGART      CLOUDY    66  57  72 NE14      29.83R
MONTICELLO     SUNNY     74  61  63 NE9       29.79R

$$




USA.gov is the U.S. government's official web portal to all federal, state and local government web resources and services.